• Join FlightAware (Why Join?)
  • Login
  • US Flag 
10:34PM EDT


 

Airport Tracker/Info


-or-


 

Live Flight TrackerFlight Track Log ✈ EJM685 ✈ 20-Oct-2013 ✈ KTEB - KBRO

Flight Track Log - Related Links

Times and Time Zones

All times are in EDT time to prevent confusion due to time zone crossing. See the EJM685 flight status page for this flight to view local times or setup timezone preferences in your user account.

Time Position Orientation Groundspeed Altitude Reporting Facility
EDT Latitude Longitude Course Direction KTS MPH feet Rate Location/Type
05:39PM 40.8333 -74.0833 252° West 166 191 1,100  Level New York TRACON
05:40PM 40.8167 -74.1500 252° West 190 219 1,900 2,280 Climbing New York TRACON
05:41PM 40.8167 -74.2333 270° West 244 281 5,700 3,900 Climbing New York TRACON
05:42PM 40.8167 -74.3167 270° West 263 303 9,800 2,940 Climbing New York TRACON
05:44PM 40.8056 -74.4775 265° West 278 320 13,300 2,340 Climbing New York Center
05:45PM 40.7628 -74.5794 241° Southwest 298 343 15,900 2,700 Climbing New York Center
05:46PM 40.7200 -74.6728 239° Southwest 325 374 18,800 3,060 Climbing New York Center
05:47PM 40.6681 -74.7956 241° Southwest 335 386 22,100 3,000 Climbing New York Center
05:48PM 40.6161 -74.9075 239° Southwest 343 395 24,800 2,640 Climbing New York Center
05:49PM 40.5561 -75.0186 235° Southwest 371 427 27,400 2,580 Climbing New York Center
05:50PM 40.4936 -75.1292 233° Southwest 376 433 30,000 2,280 Climbing New York Center
05:51PM 40.4311 -75.2425 234° Southwest 387 445 32,000 2,160 Climbing New York Center
05:52PM 40.3686 -75.3503 233° Southwest 387 445 34,400 2,400 Climbing New York Center
05:53PM 40.3058 -75.4606 233° Southwest 387 445 36,900 2,520 Climbing New York Center
05:54PM 40.2475 -75.5653 234° Southwest 380 437 39,500 1,800 Climbing New York Center
05:55PM 40.1933 -75.6619 234° Southwest 362 417 40,600 900 Climbing New York Center
05:56PM 40.1286 -75.7689 232° Southwest 357 411 41,300 900 Climbing New York Center
05:57PM 40.0719 -75.8733 235° Southwest 357 411 42,400 1,020 Climbing New York Center
05:58PM 40.0158 -75.9667 232° Southwest 365 420 43,400 960 Climbing New York Center
05:59PM 39.9547 -76.0733 233° Southwest 370 426 44,400 780 Climbing New York Center
06:00PM 39.9000 -76.1775 236° Southwest 364 419 45,000 300 Climbing New York Center
06:01PM 39.8217 -76.2931 229° Southwest 372 428 45,000  Level New York Center
06:02PM 39.7603 -76.4017 234° Southwest 382 440 45,000  Level New York Center
06:03PM 39.6786 -76.5325 231° Southwest 379 436 45,000  Level Washington Center
06:04PM 39.6175 -76.6394 233° Southwest 384 442 45,000  Level Washington Center
06:05PM 39.5519 -76.7461 231° Southwest 384 442 45,000  Level Washington Center
06:06PM 39.4883 -76.8553 233° Southwest 389 448 45,000  Level Washington Center
06:07PM 39.4244 -76.9617 232° Southwest 389 448 45,000  Level Washington Center
06:08PM 39.3544 -77.0786 232° Southwest 389 448 45,000  Level Washington Center
06:09PM 39.2969 -77.1711 231° Southwest 389 448 45,000  Level Washington Center
06:10PM 39.2331 -77.2769 232° Southwest 389 448 45,000  Level Washington Center
06:11PM 39.1689 -77.3853 233° Southwest 389 448 45,000  Level Washington Center
06:12PM 39.1047 -77.4908 232° Southwest 389 448 45,000  Level Washington Center
06:13PM 39.0386 -77.5933 230° Southwest 389 448 45,000  Level Washington Center
06:14PM 38.9678 -77.7089 232° Southwest 384 442 45,000 120 Level Washington Center
06:15PM 38.9119 -77.8033 233° Southwest 384 442 45,300 360 Climbing Washington Center
06:16PM 38.8386 -77.9264 233° Southwest 392 451 45,800 300 Climbing Washington Center
06:17PM 38.7742 -78.0281 231° Southwest 392 451 46,000 60 Climbing Washington Center
06:18PM 38.7072 -78.1350 231° Southwest 387 445 46,000  Level Washington Center
06:19PM 38.6425 -78.2392 232° Southwest 387 445 46,000  Level Washington Center
06:20PM 38.5775 -78.3431 231° Southwest 387 445 46,000  Level Washington Center
06:21PM 38.5125 -78.4467 231° Southwest 387 445 46,000  Level Washington Center
06:22PM 38.4475 -78.5503 231° Southwest 387 445 46,000  Level Washington Center
06:23PM 38.3825 -78.6511 231° Southwest 387 445 46,000  Level Washington Center
06:24PM 38.3172 -78.7542 231° Southwest 387 445 46,000  Level Washington Center
06:25PM 38.2581 -78.8575 234° Southwest 387 445 46,000  Level Washington Center
06:26PM 38.1928 -78.9603 231° Southwest 381 438 46,000  Level Washington Center
06:27PM 38.1294 -79.0631 232° Southwest 381 438 46,000  Level Washington Center
06:28PM 38.0683 -79.1525 229° Southwest 386 444 46,000  Level Washington Center
06:29PM 38.0028 -79.2547 231° Southwest 381 438 46,000  Level Washington Center
06:30PM 37.9392 -79.3544 231° Southwest 381 438 46,000  Level Washington Center
06:31PM 37.8667 -79.4664 231° Southwest 381 438 46,000  Level Washington Center
06:32PM 37.8050 -79.5633 231° Southwest 375 432 46,100 240 Climbing Washington Center
06:33PM 37.7411 -79.6650 232° Southwest 375 432 46,600 360 Climbing Washington Center
06:34PM 37.6756 -79.7533 227° Southwest 359 413 46,900 180 Climbing Washington Center
06:35PM 37.6183 -79.8392 230° Southwest 355 409 47,000  Climbing Washington Center
06:36PM 37.5519 -79.9456 232° Southwest 369 425 47,000  Level Washington Center
06:37PM 37.4769 -80.0564 230° Southwest 379 436 47,000  Level Washington Center
06:40PM 37.3147 -80.2944 229° Southwest 369 425 47,000  Level Atlanta Center
06:41PM 37.2450 -80.4019 231° Southwest 382 440 47,000  Level Atlanta Center
06:42PM 37.1731 -80.5069 229° Southwest 394 453 47,000  Level Atlanta Center
06:43PM 37.1111 -80.5981 230° Southwest 394 453 47,000  Level Atlanta Center
06:44PM 37.0431 -80.6972 229° Southwest 394 453 47,000  Level Atlanta Center
06:45PM 36.9747 -80.7989 230° Southwest 394 453 47,000  Level Atlanta Center
06:46PM 36.9064 -80.9003 230° Southwest 389 448 47,000  Level Atlanta Center
06:47PM 36.8322 -81.0097 230° Southwest 389 448 47,000  Level Atlanta Center
06:48PM 36.7758 -81.0922 230° Southwest 389 448 47,000  Level Atlanta Center
06:49PM 36.6972 -81.2089 230° Southwest 382 440 47,000  Level Atlanta Center
06:50PM 36.6308 -81.3122 231° Southwest 387 445 47,000  Level Atlanta Center
06:51PM 36.5619 -81.4153 230° Southwest 387 445 47,000  Level Atlanta Center
06:52PM 36.4892 -81.5158 228° Southwest 387 445 47,000  Level Atlanta Center
06:53PM 36.4203 -81.6186 230° Southwest 382 440 47,000  Level Atlanta Center
06:54PM 36.3511 -81.7161 229° Southwest 382 440 47,000  Level Atlanta Center
06:55PM 36.2842 -81.8158 230° Southwest 383 441 47,000  Level Atlanta Center
06:56PM 36.2131 -81.9156 229° Southwest 383 441 47,000  Level Atlanta Center
06:57PM 36.1481 -82.0125 230° Southwest 383 441 47,000  Level Atlanta Center
06:58PM 36.0764 -82.1119 228° Southwest 383 441 47,000  Level Atlanta Center
06:59PM 36.0072 -82.2111 229° Southwest 389 448 47,000  Level Atlanta Center
07:00PM 35.9417 -82.2947 226° Southwest 383 441 47,000  Level Atlanta Center
07:01PM 35.8742 -82.3908 229° Southwest 378 435 47,000  Level Atlanta Center
07:02PM 35.8044 -82.4872 228° Southwest 378 435 47,000  Level Atlanta Center
07:03PM 35.7367 -82.5856 230° Southwest 378 435 47,000  Level Atlanta Center
07:04PM 35.6608 -82.6867 227° Southwest 373 429 47,000  Level Atlanta Center
07:05PM 35.5928 -82.7822 229° Southwest 373 429 47,000  Level Atlanta Center
07:06PM 35.5250 -82.8803 230° Southwest 373 429 47,000  Level Atlanta Center
07:07PM 35.4569 -82.9756 229° Southwest 373 429 47,000  Level Atlanta Center
07:08PM 35.3869 -83.0708 228° Southwest 373 429 47,000  Level Atlanta Center
07:09PM 35.3189 -83.1658 229° Southwest 378 435 47,000  Level Atlanta Center
07:10PM 35.2525 -83.2581 229° Southwest 378 435 47,000  Level Atlanta Center
07:11PM 35.1864 -83.3500 229° Southwest 378 435 47,000  Level Atlanta Center
07:12PM 35.1158 -83.4472 228° Southwest 378 435 47,000  Level Atlanta Center
07:13PM 35.0475 -83.5414 228° Southwest 378 435 47,000  Level Atlanta Center
07:14PM 34.9853 -83.6256 228° Southwest 373 429 47,000  Level Atlanta Center
07:15PM 34.9083 -83.7272 227° Southwest 367 422 47,000  Level Atlanta Center
07:16PM 34.8397 -83.8186 228° Southwest 372 428 47,000  Level Atlanta Center
07:17PM 34.7750 -83.9072 228° Southwest 379 436 47,000  Level Atlanta Center
07:18PM 34.7083 -84.0008 229° Southwest 379 436 47,000  Level Atlanta Center
07:19PM 34.6417 -84.0892 227° Southwest 373 429 47,000  Level Atlanta Center
07:20PM 34.5728 -84.1825 228° Southwest 373 429 47,000  Level Atlanta Center
07:21PM 34.5017 -84.2783 228° Southwest 373 429 47,000  Level Atlanta Center
07:22PM 34.4325 -84.3711 228° Southwest 373 429 47,000  Level Atlanta Center
07:23PM 34.3633 -84.4642 228° Southwest 373 429 47,000  Level Atlanta Center
07:24PM 34.2942 -84.5592 229° Southwest 373 429 47,000  Level Atlanta Center
07:25PM 34.2228 -84.6569 229° Southwest 379 436 47,000  Level Atlanta Center
07:26PM 34.1511 -84.7517 228° Southwest 386 444 47,000  Level Atlanta Center
07:27PM 34.0797 -84.8464 228° Southwest 386 444 47,000  Level Atlanta Center
07:28PM 34.0142 -84.9461 232° Southwest 386 444 47,000  Level Atlanta Center
07:29PM 33.9489 -85.0406 230° Southwest 371 427 47,000  Level Atlanta Center
07:30PM 33.8811 -85.1397 231° Southwest 377 434 47,000  Level Atlanta Center
07:31PM 33.8092 -85.2464 231° Southwest 377 434 47,000  Level Atlanta Center
07:32PM 33.7414 -85.3428 230° Southwest 377 434 47,000  Level Atlanta Center
07:33PM 33.6736 -85.4417 231° Southwest 377 434 47,000  Level Atlanta Center
07:34PM 33.6056 -85.5403 230° Southwest 377 434 47,000  Level Atlanta Center
07:35PM 33.5397 -85.6364 231° Southwest 377 434 47,000  Level Atlanta Center
07:36PM 33.4694 -85.7322 229° Southwest 377 434 47,000  Level Atlanta Center
07:37PM 33.4100 -85.8106 228° Southwest 377 434 47,000  Level Atlanta Center
07:38PM 33.3417 -85.9061 229° Southwest 372 428 47,000  Level Atlanta Center
07:39PM 33.2756 -86.0067 232° Southwest 377 434 47,000  Level Atlanta Center
07:40PM 33.2050 -86.1044 229° Southwest 377 434 47,000  Level Atlanta Center
07:41PM 33.1303 -86.2092 230° Southwest 377 434 47,000  Level Atlanta Center
07:42PM 33.0703 -86.2969 231° Southwest 377 434 47,000  Level Atlanta Center
07:43PM 33.0017 -86.3944 230° Southwest 384 442 47,000  Level Atlanta Center
07:44PM 32.9308 -86.4889 228° Southwest 384 442 47,000  Level Atlanta Center
07:45PM 32.8642 -86.5886 232° Southwest 384 442 47,000  Level Atlanta Center
07:46PM 32.7931 -86.6853 229° Southwest 384 442 47,000  Level Atlanta Center
07:47PM 32.7244 -86.7794 229° Southwest 384 442 47,000  Level Atlanta Center
07:48PM 32.6531 -86.8808 230° Southwest 394 453 47,000  Level Atlanta Center
07:49PM 32.5861 -86.9750 230° Southwest 389 448 47,000  Level Atlanta Center
07:50PM 32.5150 -87.0711 229° Southwest 389 448 47,000  Level Atlanta Center
07:51PM 32.4439 -87.1644 228° Southwest 389 448 47,000  Level Atlanta Center
07:52PM 32.3767 -87.2606 230° Southwest 396 456 47,000  Level Atlanta Center
07:53PM 32.3094 -87.3589 231° Southwest 396 456 47,000  Level Atlanta Center
07:54PM 32.2400 -87.4522 229° Southwest 390 449 47,000  Level Atlanta Center
07:55PM 32.1686 -87.5475 229° Southwest 390 449 47,000  Level Atlanta Center
07:56PM 32.0969 -87.6403 228° Southwest 390 449 47,000  Level Atlanta Center
07:57PM 32.0336 -87.7358 232° Southwest 390 449 47,000  Level Atlanta Center
07:58PM 31.9639 -87.8308 229° Southwest 390 449 47,000  Level Atlanta Center
07:59PM 31.8325 -87.9967 227° Southwest 383 441 47,000  Level Memphis Center
08:00PM 31.7619 -88.0908 229° Southwest 384 442 47,000  Level Memphis Center
08:01PM 31.6925 -88.1850 229° Southwest 383 441 47,000  Level Memphis Center
08:03PM 31.6089 -88.2972 229° Southwest 383 441 47,000  Level Memphis Center
08:04PM 31.5389 -88.3903 229° Southwest 383 441 47,000  Level Memphis Center
08:05PM 31.4694 -88.4842 229° Southwest 383 441 47,000  Level Memphis Center
08:06PM 31.3833 -88.5950 228° Southwest 388 447 47,000  Level Houston Center
08:07PM 31.3131 -88.6889 229° Southwest 387 445 47,000  Level Houston Center
08:08PM 31.2283 -88.8000 228° Southwest 384 442 47,000  Level Houston Center
08:09PM 31.1567 -88.8936 228° Southwest 388 447 47,000  Level Houston Center
08:10PM 31.0889 -88.9825 228° Southwest 388 447 47,000  Level Houston Center
08:11PM 31.0178 -89.0772 229° Southwest 388 447 47,000  Level Houston Center
08:12PM 30.9456 -89.1711 228° Southwest 389 448 47,000 -120 Level Houston Center
08:13PM 30.8594 -89.2844 229° Southwest 389 448 46,800 -300 Descending Houston Center
08:14PM 30.7856 -89.3778 227° Southwest 392 451 46,400 -420 Descending Houston Center
08:15PM 30.7119 -89.4736 228° Southwest 396 456 46,000 -300 Descending Houston Center
08:16PM 30.6389 -89.5700 229° Southwest 398 458 45,800 -300 Descending Houston Center
08:17PM 30.5647 -89.6653 228° Southwest 398 458 45,500 -420 Descending Houston Center
08:18PM 30.4925 -89.7608 229° Southwest 398 458 45,000 -300 Descending Houston Center
08:19PM 30.4092 -89.8600 226° Southwest 404 465 45,000  Level Houston Center
08:20PM 30.3306 -89.9644 229° Southwest 413 475 45,000  Level Houston Center
08:21PM 30.2575 -90.0586 228° Southwest 399 459 45,000  Level Houston Center
08:22PM 30.1833 -90.1522 228° Southwest 397 457 45,000  Level Houston Center
08:23PM 30.0942 -90.2644 227° Southwest 397 457 45,000  Level Houston Center
08:24PM 30.0389 -90.3725 239° Southwest 394 453 45,000  Level Houston Center
08:25PM 30.0058 -90.4881 252° West 382 440 45,000  Level Houston Center
08:26PM 29.9756 -90.6050 253° West 382 440 45,000  Level Houston Center
08:27PM 29.9433 -90.7219 252° West 382 440 45,000  Level Houston Center
08:28PM 29.9103 -90.8411 252° West 389 448 45,000  Level Houston Center
08:30PM 29.8786 -90.9597 253° West 388 447 45,000  Level Houston Center
08:31PM 29.8397 -91.0997 252° West 384 442 45,000  Level Houston Center
08:32PM 29.8075 -91.2156 252° West 383 441 45,000  Level Houston Center
08:33PM 29.7750 -91.3328 252° West 383 441 45,000  Level Houston Center
08:34PM 29.7425 -91.4506 252° West 386 444 45,000  Level Houston Center
08:35PM 29.7108 -91.5678 253° West 386 444 45,000  Level Houston Center
08:36PM 29.6778 -91.6839 252° West 383 441 45,000  Level Houston Center
08:37PM 29.6406 -91.8094 251° West 384 442 45,000  Level Houston Center
08:38PM 29.6072 -91.9264 252° West 384 442 45,000  Level Houston Center
08:39PM 29.5756 -92.0414 252° West 381 438 45,000  Level Houston Center
08:40PM 29.5425 -92.1575 252° West 382 440 45,000  Level Houston Center
08:41PM 29.5086 -92.2739 252° West 383 441 45,000  Level Houston Center
08:42PM 29.4683 -92.4125 252° West 382 440 45,000  Level Houston Center
08:43PM 29.4358 -92.5281 252° West 382 440 45,000  Level Houston Center
08:44PM 29.4019 -92.6444 252° West 383 441 45,000  Level Houston Center
08:45PM 29.3683 -92.7600 252° West 383 441 45,000  Level Houston Center
08:46PM 29.3344 -92.8764 252° West 384 442 45,000  Level Houston Center
08:47PM 29.3000 -92.9911 251° West 382 440 45,000  Level Houston Center
08:48PM 29.2672 -93.1075 252° West 383 441 45,000  Level Houston Center
08:49PM 29.2333 -93.2233 251° West 383 441 45,000  Level Houston Center
08:50PM 29.1917 -93.3611 251° West 381 438 45,000  Level Houston Center
08:51PM 29.1575 -93.4772 251° West 383 441 45,000  Level Houston Center
08:52PM 29.1228 -93.5931 251° West 385 443 45,000  Level Houston Center
08:53PM 29.0886 -93.7061 251° West 380 437 45,000  Level Houston Center
08:54PM 29.0547 -93.8197 251° West 378 435 45,000  Level Houston Center
08:55PM 29.0158 -93.9472 251° West 381 438 45,000  Level Houston Center
08:56PM 28.9817 -94.0608 251° West 378 435 45,000  Level Houston Center
08:57PM 28.9467 -94.1742 251° West 379 436 45,000  Level Houston Center
08:58PM 28.9122 -94.2875 251° West 377 434 45,000  Level Houston Center
08:59PM 28.8769 -94.4025 251° West 382 440 45,000  Level Houston Center
09:00PM 28.8417 -94.5189 251° West 386 444 45,000  Level Houston Center
09:01PM 28.8056 -94.6336 250° West 384 442 45,000  Level Houston Center
09:02PM 28.7703 -94.7486 251° West 383 441 45,000  Level Houston Center
09:03PM 28.7347 -94.8642 251° West 386 444 45,000  Level Houston Center
09:04PM 28.6986 -94.9811 251° West 388 447 45,000  Level Houston Center
09:05PM 28.6550 -95.1203 250° West 388 447 45,000  Level Houston Center
09:06PM 28.6192 -95.2342 250° West 383 441 45,000  Level Houston Center
09:07PM 28.5833 -95.3486 250° West 383 441 45,000  Level Houston Center
09:08PM 28.5347 -95.4542 242° Southwest 382 440 45,000 -420 Level Houston Center
09:10PM 28.4458 -95.5278 216° Southwest 396 456 44,200 -1,140 Descending Houston Center
09:11PM 28.3561 -95.5961 214° Southwest 390 449 42,700 -1,620 Descending Houston Center
09:12PM 28.2603 -95.6706 214° Southwest 383 441 41,000 -1,620 Descending Houston Center
09:13PM 28.1747 -95.7347 213° Southwest 373 429 39,500 -1,500 Descending Houston Center
09:14PM 28.0842 -95.8044 214° Southwest 386 444 38,000 -780 Descending Houston Center
09:15PM 27.9914 -95.8744 214° Southwest 397 457 38,000  Level Houston Center
09:16PM 27.8986 -95.9453 214° Southwest 402 463 38,000 -120 Level Houston Center
09:17PM 27.8061 -96.0153 214° Southwest 400 460 37,800 -960 Descending Houston Center
09:18PM 27.7147 -96.0839 214° Southwest 396 456 36,100 -1,740 Descending Houston Center
09:19PM 27.6211 -96.1567 215° Southwest 405 466 34,300 -1,980 Descending Houston Center
09:20PM 27.5053 -96.2419 213° Southwest 412 474 32,100 -1,980 Descending Houston Center
09:21PM 27.4097 -96.3147 214° Southwest 413 475 30,300 -1,800 Descending Houston Center
09:22PM 27.3161 -96.3850 214° Southwest 409 471 28,500 -1,740 Descending Houston Center
09:23PM 27.2258 -96.4525 214° Southwest 397 457 26,800 -1,680 Descending Houston Center
09:24PM 27.1383 -96.5178 214° Southwest 391 450 25,100 -1,680 Descending Houston Center
09:26PM 26.9611 -96.6506 214° Southwest 381 438 21,700 -1,680 Descending Houston Center
09:27PM 26.8753 -96.7144 214° Southwest 373 429 20,100 -1,740 Descending Houston Center
09:27PM 26.8422 -96.7397 214° Southwest 369 425 19,400 -1,740 Descending Houston Center
09:28PM 26.7897 -96.7775 213° Southwest 369 425 18,500 -1,320 Descending Houston Center
09:28PM 26.7892 -96.7772 156° South 371 427 18,500 -1,800 Level Houston Center
09:29PM 26.6944 -96.8475 214° Southwest 360 414 16,700 -1,920 Descending Houston Center
09:29PM 26.6922 -96.8503 228° Southwest 357 411 16,600 -600 Descending Houston Center
09:30PM 26.6131 -96.9106 214° Southwest 352 405 16,100 -540 Descending Houston Center
09:30PM 26.6097 -96.9147 228° Southwest 353 406 16,100 -1,380 Level Houston Center
09:31PM 26.5411 -96.9814 221° Southwest 353 406 14,700 -1,620 Descending Houston Center
09:31PM 26.5372 -96.9872 233° Southwest 351 404 14,500 -1,800 Descending Houston Center
09:32PM 26.4675 -97.0550 221° Southwest 355 409 12,900 -1,680 Descending Houston Center
09:32PM 26.4617 -97.0586 209° Southwest 354 407 12,800 -1,620 Descending Houston Center
09:33PM 26.3867 -97.1289 220° Southwest 331 381 11,100 -1,560 Descending Houston Center
09:34PM 26.3342 -97.1811 222° Southwest 288 331 9,900 -1,380 Descending Houston Center
09:34PM 26.3247 -97.1881 213° Southwest 300 345 9,700 -1,440 Descending Houston Center
09:35PM 26.2750 -97.2358 221° Southwest 272 313 8,500 -1,380 Descending Houston Center
09:35PM 26.2667 -97.2433 219° Southwest 279 321 8,300 -1,320 Descending Houston Center
09:36PM 26.2197 -97.2878 220° Southwest 266 306 7,200 -1,260 Descending Houston Center
09:36PM 26.2117 -97.2950 219° Southwest 261 300 7,000 -1,680 Descending Houston Center
09:37PM 26.1628 -97.3422 221° Southwest 247 284 5,500 -1,680 Descending Houston Center
09:37PM 26.1556 -97.3486 218° Southwest 248 285 5,300 -1,620 Descending Houston Center
09:38PM 26.1114 -97.3914 221° Southwest 242 278 3,900 -1,620 Descending Houston Center
09:38PM 26.1033 -97.3972 213° Southwest 245 282 3,700 -1,320 Descending Houston Center
09:39PM 26.0519 -97.4453 220° Southwest 243 280 2,400 -960 Descending Houston Center
09:40PM 26.0122 -97.4839 221° Southwest 224 258 2,000 -420 Descending Houston Center
09:40PM 26.0058 -97.4889 215° Southwest 223 257 2,000 -300 Level Houston Center
09:41PM 25.9661 -97.4883 179° South 156 180 1,700 -600 Descending Houston Center
09:42PM 25.9472 -97.4672 135° Southeast 104 120 1,000 -900 Descending Houston Center
09:42PM 25.9411 -97.4606 136° Southeast 120 138 800 -600 Descending Houston Center
09:43PM 25.9214 -97.4400 137° Southeast 116 133 300 -540 Descending Houston Center
09:45PM 25.9068 -97.4258 174° South  Level Estimated